カタログに戻る

ORBCOMM FM 119

運用中通信LEO
NORAD 41180·PAYLOAD·🇺🇸 United States

打ち上げ Dec 22, 2015 から Cape Canaveral Space Force Station

Loading…

次のパス (今後24時間)

TLE

最新Source: Space-Track

元期: Sep 14, 2026, 13:32 UTC

1 41180U 15081B   26257.56391083  .00000332  00000-0  10635-3 0  9992
2 41180  46.9993 208.7837 0001874 310.4412  49.6310 14.58875530572054

AllMySatでORBCOMM FM 119をリアルタイム追跡

Download on the App Store